This demonstration page uses our WeatherBlox Daily Observations layout. Learn more.

Left ArrowRight Arrow

Hourly Observations for July 14, 2018

Temp ( °F °C ) Dew Point ( °F °C ) Humidity (%) Winds ( mph kmh ) Pressure ( in mb ) Visibility ( mi km ) Precip ( " mm )
12:51 am 00:51 Clear 77 25 69 20.6 77 77 N N/A 29.91 1013 10 16.0934 N/A
1:51 am 01:51 Clear 76 24.4 69 20.6 79 79 N 3 6 29.89 1012 10 16.0934 N/A
2:51 am 02:51 Mostly Clear 76 24.4 68 20 77 77 SE 5 7 29.89 1012 10 16.0934 N/A
3:51 am 03:51 Clear 75 23.9 66 18.9 74 74 N N/A 29.89 1012 10 16.0934 N/A
4:51 am 04:51 Clear 73 22.8 69 20.6 87 87 N N/A 29.91 1013 10 16.0934 N/A
5:51 am 05:51 Sunny 74 23.3 69 20.6 85 85 N N/A 29.93 1014 10 16.0934 N/A
6:51 am 06:51 Mostly Cloudy 76 24.4 69 20.6 79 79 N N/A 29.94 1014 10 16.0934 N/A
7:51 am 07:51 Mostly Cloudy with Light Rain 78 25.6 67 19.4 69 69 E 5 7 29.96 1014 10 16.0934 N/A
8:51 am 08:51 Mostly Cloudy with Light Rain 76 24.4 70 21.1 82 82 SE 5 7 29.98 1015 10 16.0934 0.02 0.508
9:51 am 09:51 Mostly Cloudy 78 25.6 67 19.4 69 69 SE 8 13 29.97 1015 10 16.0934 0.01 0.254
10:51 am 10:51 Mostly Sunny 82 27.8 63 17.2 53 53 ESE 8 13 29.95 1014 10 16.0934 N/A
11:51 am 11:51 Sunny 86 30 63 17.2 46 46 S 7 11 29.93 1014 10 16.0934 N/A
12:51 pm 12:51 Sunny 86 30 61 16.1 43 43 SW 6 9 29.91 1013 10 16.0934 N/A
1:51 pm 13:51 Sunny 86 30 62 16.7 45 45 W 6 9 29.89 1012 10 16.0934 N/A
2:51 pm 14:51 Sunny 90 32.2 62 16.7 39 39 W 12 19 29.85 1011 10 16.0934 N/A
3:51 pm 15:51 Sunny 89 31.7 62 16.7 41 41 WNW 7 11 29.84 1010 10 16.0934 N/A
4:51 pm 16:51 Sunny 89 31.7 63 17.2 42 42 W 10 17 29.83 1010 10 16.0934 N/A
5:51 pm 17:51 Sunny 88 31.1 61 16.1 40 40 W 14 22 29.83 1010 10 16.0934 N/A
6:51 pm 18:51 Sunny 87 30.6 61 16.1 42 42 WNW 7 11 29.83 1010 10 16.0934 N/A
7:51 pm 19:51 Clear 84 28.9 62 16.7 48 48 NE 6 9 29.85 1011 10 16.0934 N/A
8:51 pm 20:51 Clear 81 27.2 64 17.8 57 57 WNW 14 22 29.9 1013 10 16.0934 N/A
9:33 pm 21:33 Mostly Cloudy with Nearby Thunderstorms 77 25 64 17.8 64 64 W 23 37 29.91 1013 10 16.0934 N/A
9:48 pm 21:48 Mostly Clear 73 23 64 18 74 74 WNW 22 35 29.91 1013 10 16.0934 N/A
9:51 pm 21:51 Mostly Clear 74 23.3 65 18.3 74 74 WNW 20 31 29.95 1014 10 16.0934 N/A
10:51 pm 22:51 Clear 72 22.2 66 18.9 82 82 W 12 19 29.93 1013 10 16.0934 N/A
11:51 pm 23:51 Clear 73 22.8 66 18.9 79 79 NNW 9 15 29.91 1013 10 16.0934 N/A

Powered by AerisWeather